Location: *
(45.9500°N, 9.0833°E)
Time: 06:23:42
(UTC+00:00)

SR - Pass Details

Date: 19 June 2021
Orbit: 577 x 878 km, 66.7° (Epoch: 24 July)

Event Time Altitude Azimuth Distance (km) Brightness Sun altitude
Rises 15:37:16 0° 198° (SSW) 3,441 ? 35.1°
Reaches altitude 10° 15:39:46 10° 195° (SSW) 2,519 ? 34.7°
Maximum altitude 15:45:33 59° 117° (ESE) 1,007 ? 33.7°
Drops below altitude 10° 15:51:16 10° 40° (NE) 2,500 ? 32.7°
Sets 15:53:44 0° 36° (NE) 3,413 ? 32.2°
